TimeICT,TemperatureF,Dew PointF,Humidity,Sea Level PressureIn,VisibilityMPH,Wind Direction,Wind SpeedMPH,Gust SpeedMPH,PrecipitationIn,Events,Conditions,WindDirDegrees,DateUTC
12:00 AM,84.2,77.0,79,29.80,6.2,SSW,5.8,-,N/A,,Scattered Clouds,210,2012-10-04 17:00:00
12:30 AM,84.2,77.0,79,29.77,6.2,SW,8.1,-,N/A,,Scattered Clouds,220,2012-10-04 17:30:00
1:00 AM,83,76,75,29.78,6,SW,5.8,,,,Scattered Clouds,230,2012-10-04 18:00:00
1:00 AM,84.2,77.0,79,29.77,6.2,SW,5.8,-,N/A,,Scattered Clouds,230,2012-10-04 18:00:00
1:30 AM,82.4,75.2,79,29.77,6.2,WSW,3.5,-,N/A,,Scattered Clouds,240,2012-10-04 18:30:00
2:00 AM,82.4,75.2,79,29.74,6.2,WSW,3.5,-,N/A,,Scattered Clouds,240,2012-10-04 19:00:00
2:30 AM,82.4,75.2,79,29.74,6.2,SW,3.5,-,N/A,,Scattered Clouds,230,2012-10-04 19:30:00
3:00 AM,82.4,75.2,79,29.74,6.2,WSW,3.5,-,N/A,,Scattered Clouds,250,2012-10-04 20:00:00
3:30 AM,82.4,75.2,79,29.74,6.2,SW,5.8,-,N/A,,Scattered Clouds,230,2012-10-04 20:30:00
4:00 AM,82.4,75.2,79,29.74,6.2,WSW,2.3,-,N/A,,Scattered Clouds,240,2012-10-04 21:00:00
4:30 AM,82.4,75.2,79,29.74,6.2,SW,4.6,-,N/A,,Scattered Clouds,230,2012-10-04 21:30:00
5:00 AM,80.6,75.2,84,29.77,6.2,SW,4.6,-,N/A,,Scattered Clouds,230,2012-10-04 22:00:00
5:30 AM,80.6,73.4,79,29.77,6.2,WSW,2.3,-,N/A,,Scattered Clouds,240,2012-10-04 22:30:00
6:00 AM,80.6,73.4,79,29.77,6.2,SW,5.8,-,N/A,,Scattered Clouds,220,2012-10-04 23:00:00
6:30 AM,80.6,73.4,79,29.77,6.2,SSW,5.8,-,N/A,,Mostly Cloudy,210,2012-10-04 23:30:00
7:00 AM,81,74,75,29.80,6,SW,5.8,,,,Scattered Clouds,230,2012-10-05 00:00:00
7:00 AM,80.6,75.2,84,29.80,6.2,SW,5.8,-,N/A,,Mostly Cloudy,230,2012-10-05 00:00:00
7:30 AM,82.4,75.2,79,29.80,6.2,SW,6.9,-,N/A,,Scattered Clouds,220,2012-10-05 00:30:00
8:00 AM,82.4,75.2,79,29.80,6.2,WSW,4.6,-,N/A,,Scattered Clouds,250,2012-10-05 01:00:00
8:30 AM,84.2,71.6,66,29.83,6.2,WSW,8.1,-,N/A,,Scattered Clouds,240,2012-10-05 01:30:00
9:00 AM,86.0,71.6,62,29.83,6.2,WSW,5.8,-,N/A,,Scattered Clouds,240,2012-10-05 02:00:00
9:30 AM,86.0,71.6,62,29.83,6.2,West,5.8,-,N/A,,Scattered Clouds,280,2012-10-05 02:30:00
10:00 AM,87.8,71.6,58,29.83,6.2,West,2.3,-,N/A,,Mostly Cloudy,280,2012-10-05 03:00:00
10:30 AM,87.8,71.6,58,29.83,6.2,WNW,5.8,-,N/A,,Mostly Cloudy,300,2012-10-05 03:30:00
11:00 AM,89.6,71.6,55,29.80,6.2,NW,4.6,-,N/A,,Mostly Cloudy,310,2012-10-05 04:00:00
11:30 AM,89.6,71.6,55,29.80,6.2,West,5.8,-,N/A,,Mostly Cloudy,280,2012-10-05 04:30:00
12:30 PM,91.4,71.6,52,29.77,6.2,West,2.3,-,N/A,,Mostly Cloudy,280,2012-10-05 05:30:00
1:00 PM,92,70,40,29.76,6,West,5.8,,,,Scattered Clouds,260,2012-10-05 06:00:00
1:00 PM,91.4,69.8,49,29.74,6.2,West,5.8,-,N/A,,Mostly Cloudy,260,2012-10-05 06:00:00
1:30 PM,91.4,75.2,59,29.74,6.2,WNW,3.5,-,N/A,,Mostly Cloudy,300,2012-10-05 06:30:00
2:00 PM,93.2,73.4,52,29.74,6.2,WNW,10.4,-,N/A,,Mostly Cloudy,300,2012-10-05 07:00:00
2:30 PM,91.4,73.4,55,29.71,6.2,WSW,3.5,-,N/A,,Mostly Cloudy,240,2012-10-05 07:30:00
3:00 PM,93.2,75.2,56,29.68,6.2,NNW,8.1,-,N/A,,Mostly Cloudy,330,2012-10-05 08:00:00
3:30 PM,91.4,73.4,55,29.68,6.2,WNW,8.1,-,N/A,,Mostly Cloudy,300,2012-10-05 08:30:00
4:00 PM,89.6,73.4,59,29.68,6.2,NNW,6.9,-,N/A,,Mostly Cloudy,330,2012-10-05 09:00:00
4:30 PM,89.6,73.4,59,29.68,6.2,NNW,8.1,-,N/A,,Mostly Cloudy,330,2012-10-05 09:30:00
5:00 PM,89.6,73.4,59,29.68,6.2,West,3.5,-,N/A,,Mostly Cloudy,270,2012-10-05 10:00:00
5:30 PM,87.8,73.4,62,29.68,6.2,NNW,6.9,-,N/A,,Mostly Cloudy,330,2012-10-05 10:30:00
6:00 PM,87.8,73.4,62,29.71,6.2,WNW,4.6,-,N/A,,Mostly Cloudy,300,2012-10-05 11:00:00
6:30 PM,87.8,75.2,66,29.74,6.2,NNW,4.6,-,N/A,,Mostly Cloudy,330,2012-10-05 11:30:00
7:00 PM,87,74,56,29.75,6,NNW,2.3,,,,Scattered Clouds,330,2012-10-05 12:00:00
7:00 PM,86.0,75.2,70,29.74,6.2,NNW,2.3,-,N/A,,Mostly Cloudy,330,2012-10-05 12:00:00
7:30 PM,87.8,75.2,66,29.74,6.2,Calm,Calm,-,N/A,,Mostly Cloudy,0,2012-10-05 12:30:00
8:00 PM,86.0,75.2,70,29.77,6.2,WSW,6.9,-,N/A,,Mostly Cloudy,240,2012-10-05 13:00:00
8:30 PM,86.0,75.2,70,29.77,6.2,WSW,8.1,-,N/A,,Mostly Cloudy,240,2012-10-05 13:30:00
9:00 PM,82.4,75.2,79,29.80,5.6,WSW,6.9,-,N/A,Rain,Light Rain,240,2012-10-05 14:00:00
9:30 PM,82.4,75.2,79,29.83,6.2,SW,9.2,-,N/A,,Mostly Cloudy,220,2012-10-05 14:30:00
10:00 PM,82.4,75.2,79,29.83,6.2,WSW,3.5,-,N/A,,Mostly Cloudy,240,2012-10-05 15:00:00
10:30 PM,82.4,75.2,79,29.83,6.2,WSW,3.5,-,N/A,,Mostly Cloudy,240,2012-10-05 15:30:00
11:00 PM,82.4,75.2,79,29.83,6.2,SSW,9.2,-,N/A,,Mostly Cloudy,210,2012-10-05 16:00:00
11:30 PM,82.4,75.2,79,29.83,6.2,SSW,8.1,-,N/A,,Mostly Cloudy,210,2012-10-05 16:30:00